This demonstration page uses our WeatherBlox Daily Observations layout. Learn more.

Left ArrowRight Arrow

Hourly Observations for July 5, 2015

Temp ( °F °C ) Dew Point ( °F °C ) Humidity (%) Winds ( mph kmh ) Pressure ( in mb ) Visibility ( mi km ) Precip ( " mm )
12:51 am 00:51 Clear 82 27.8 63 17.2 53 53 S 7 11 29.79 1009 10 16.0934 N/A
1:51 am 01:51 Mostly Cloudy 81 27.2 61 16.1 51 51 E 7 11 29.79 1009 10 16.0934 N/A
2:51 am 02:51 Clear 80 26.7 62 16.7 54 54 ESE 8 13 29.8 1009 10 16.0934 N/A
3:51 am 03:51 Clear 79 26.1 63 17.2 58 58 ESE 9 15 29.79 1009 10 16.0934 N/A
4:51 am 04:51 Clear 78 25.6 63 17.2 60 60 E 10 17 29.81 1010 10 16.0934 N/A
5:51 am 05:51 Sunny 77 25 63 17.2 62 62 E 6 9 29.85 1011 10 16.0934 N/A
6:51 am 06:51 Sunny 79 26.1 63 17.2 58 58 NNE 6 9 29.85 1011 10 16.0934 N/A
7:51 am 07:51 Mostly Cloudy 79 26.1 64 17.8 60 60 NW 5 7 29.87 1012 10 16.0934 N/A
8:51 am 08:51 Cloudy 81 27.2 62 16.7 53 53 W 5 7 29.88 1012 10 16.0934 N/A
9:51 am 09:51 Cloudy 83 28.3 60 15.6 46 46 WNW 8 13 29.88 1012 10 16.0934 N/A
10:51 am 10:51 Cloudy with Light Rain 82 27.8 62 16.7 51 51 WNW 12 19 29.9 1012 10 16.0934 N/A
11:51 am 11:51 Cloudy 84 28.9 60 15.6 44 44 NW 9 15 29.88 1012 10 16.0934 N/A
12:51 pm 12:51 Mostly Sunny 87 30.6 61 16.1 42 42 W 14 22 29.85 1011 10 16.0934 N/A
1:51 pm 13:51 Sunny 90 32.2 61 16.1 38 38 W 16 26 29.81 1010 10 16.0934 N/A
2:51 pm 14:51 Sunny 90 32.2 60 15.6 37 37 W 14 22 29.79 1009 10 16.0934 N/A
3:51 pm 15:51 Sunny 90 32.2 59 15 35 35 WNW 17 28 29.77 1008 10 16.0934 N/A
4:51 pm 16:51 Partly Cloudy 91 32.8 56 13.3 31 31 NW 13 20 29.77 1008 10 16.0934 N/A
5:06 pm 17:06 Mostly Cloudy 88 31.1 58 14.4 36 36 N N/A 29.71 1006 10 16.0934 N/A
5:51 pm 17:51 Cloudy with Light Rain 77 25 63 17.2 62 62 N 22 35 29.85 1011 10 16.0934 N/A
6:08 pm 18:08 Cloudy with Heavy Rain 71 21.7 66 18.9 84 84 N 17 28 29.83 1010 1.75 2.816345 0.03 0.762
6:25 pm 18:25 Cloudy with Rain 71 21.7 66 18.9 84 84 NNW 12 19 29.88 1012 3 4.82802 0.19 4.826
6:51 pm 18:51 Cloudy with Light Rain 73 22.8 66 18.9 79 79 WNW 14 22 29.89 1012 10 16.0934 0.2 5.08
7:51 pm 19:51 Mostly Cloudy with Light Rain 70 21.1 66 18.9 87 87 WNW 3 6 29.9 1013 10 16.0934 0.01 0.254
8:51 pm 20:51 Mostly Clear with Light Rain 71 21.7 68 20 90 90 N N/A 29.89 1012 10 16.0934 0.03 0.762
9:51 pm 21:51 Clear 71 21.7 69 20.6 94 94 ENE 5 7 29.91 1013 10 16.0934 N/A
10:51 pm 22:51 Clear 70 21.1 68 20 93 93 SE 6 9 29.91 1013 10 16.0934 N/A
11:51 pm 23:51 Mostly Cloudy 71 21.7 67 19.4 87 87 N N/A 29.91 1013 10 16.0934 N/A

Powered by AerisWeather